Location: Castifao
(42.5040°N, 9.1124°E)
Time: 17:43:38
(UTC+00:00)

YAOGAN 6 - Pass Details

Date: 23 January 2020
Orbit: 465 x 505 km, 97.0° (Epoch: 26 February)

Event Time Altitude Azimuth Distance (km) Brightness Sun altitude
Rises 17:05:35 0° 156° (SSE) 2,591 6.2 -7.8°
Reaches altitude 10° 17:07:42 10° 151° (SSE) 1,709 5.2 -8.1°
Maximum altitude 17:11:17 52° 75° (ENE) 629 2.7 -8.8°
Drops below altitude 10° 17:14:52 10° 358° (N) 1,707 5.2 -9.4°
Sets 17:16:59 0° 354° (N) 2,589 6.1 -9.8°
